[[{"header":{"parameterUnit":"m.s-1","parameterCategory":1,"la1":30.2991,"la2":30.254,"lo1":-89.0895,"lo2":-89.0444,"dy":0.0017,"dx":0.0017,"nx":28,"ny":28,"refTime":"2025-11-28T09:00:00:Z","depth":0,"parameterNumber":2,"parameterNumberName":"U-component_of_WINDS"},"data":[0,0,0,0,0,0,0,0,0,0,0,0,0,0,0,0,0,0,0,0,0,0,0,0,0,0,0,0,0,0,0,0,0,0,0,0,0,0,0,0,0,0,0,0,0,0,0,0,0,0,0,0,0,0,0,0,0,0,-3.6868,-3.6868,0,-3.6899,-3.6899,-3.69,-3.6787,-3.6784,-3.6781,-3.6777,-3.6809,-3.6813,-3.6817,0,0,0,0,0,0,0,0,0,0,0,0,0,-3.6709,-3.6713,-3.6868,-3.6868,-3.6868,-3.6899,-3.6899,-3.69,-3.6788,-3.6784,-3.678,-3.6776,-3.6808,-3.6813,-3.6817,0,0,0,0,0,0,0,0,0,0,0,0,0,-3.6763,-3.6714,-3.6867,-3.6816,-3.6812,-3.6899,-3.6899,-3.69,-3.6789,-3.6784,-3.6779,-3.6774,-3.6806,-3.6812,-3.6818,-3.6956,0,0,-3.6836,-3.6839,0,0,0,0,0,0,0,0,-3.676,-3.6769,-3.6823,-3.682,-3.6815,-3.6834,-3.6855,-3.6919,-3.679,-3.6798,-3.6777,-3.6772,-3.6822,-3.6826,-3.6843,-3.6957,-3.6958,-3.6837,-3.684,-3.6843,-3.6845,0,0,0,0,0,0,0,-3.6757,-3.6767,-3.688,-3.6824,-3.6819,-3.6791,-3.6793,-3.6866,-3.6837,-3.6797,-3.6789,-3.6794,-3.6818,-3.6837,-3.6843,-3.6959,-3.6837,-3.6842,-3.6846,-3.6848,-3.7185,-3.719,0,0,0,0,0,0,-3.676,-3.6765,-3.6879,-3.6881,-3.6775,-3.6798,-3.68,-3.6833,-3.6836,-3.6832,-3.6798,-3.6788,-3.683,-3.6836,-3.6844,-3.7003,-3.6843,-3.6849,-3.6852,-3.718,-3.7186,-3.7192,0,0,0,0,0,0,-3.6757,-3.6771,-3.6878,-3.6821,-3.6832,-3.6806,-3.6844,-3.6836,-3.6855,-3.6837,-3.6832,-3.6823,-3.6826,-3.6835,-3.6928,-3.7003,-3.6851,-3.6857,-3.7173,-3.7182,-3.7189,-3.7325,0,0,0,0,0,0,-3.6753,-3.6771,-3.6823,-3.6823,-3.6835,-3.6963,-3.6848,-3.6841,-3.6866,-3.6854,-3.6859,-3.6855,-3.6823,-3.692,-3.6934,-3.7008,-3.6861,-3.7167,-3.7177,-3.7187,-3.7313,-3.7336,-3.7356,0,0,0,0,0,-3.6748,-3.686,-3.6826,-3.6841,-3.6901,-3.6967,-3.6974,-3.6935,-3.6872,-3.6924,-3.6913,-3.6855,-3.6992,-3.693,-3.6945,-3.7022,-3.7162,-3.7174,-3.7186,-3.7304,-3.7332,-3.7355,0,0,0,0,0,0,-3.6871,-3.686,-3.6822,-3.6938,-3.6954,-3.6948,-3.7013,-3.6966,-3.7,-3.6988,-3.6937,-3.6939,-3.704,-3.7041,-3.6972,-3.7154,-3.7066,-3.7082,-3.7151,-3.7177,-3.7198,-3.7195,-3.6866,0,0,0,0,0,-3.6912,-3.6967,-3.6954,-3.7058,-3.7068,-3.7039,-3.7067,-3.7035,-3.7049,-3.7056,-3.7051,-3.7067,-3.7113,-3.7145,-3.7187,-3.7313,-3.7312,-3.7373,-3.7394,-3.7412,-3.7426,-3.749,-3.7517,-3.7232,-3.7232,-3.7232,0,0,-3.6996,-3.6997,-3.7035,-3.7082,-3.7091,-3.7149,-3.7046,-3.7112,-3.7153,-3.7066,-3.7153,-3.715,-3.7165,-3.7274,-3.7322,-3.7277,-3.7504,-3.7427,-3.7442,-3.7446,-3.7506,-3.7533,-3.7557,-3.724,-3.7239,-3.7237,0,0,-3.718,-3.7187,-3.7273,-3.7283,-3.7298,-3.7278,-3.7299,-3.73,-3.7294,-3.7381,-3.7315,-3.7364,-3.7446,-3.7459,-3.7476,-3.7663,-3.761,-3.7678,-3.7789,-3.7852,-3.7875,-3.7894,-3.7959,-3.7984,-3.7692,-3.7692,-3.7693,0,-3.7283,-3.7367,-3.7323,-3.7393,-3.7415,-3.7338,-3.7424,-3.7436,-3.7464,-3.7481,-3.7431,-3.753,-3.7535,-3.7645,-3.7691,-3.7708,-3.7729,-3.7677,-3.7875,-3.7894,-3.7912,-3.7974,-3.7998,-3.77,-3.7699,-3.7699,-3.7698,0,-3.7493,-3.7553,-3.762,-3.7648,-3.7678,-3.7756,-3.7722,-3.7758,-3.7723,-3.7708,-3.7796,-3.7799,-3.7839,-3.7863,-3.783,-3.7969,-3.794,-3.7884,-3.7794,-3.7948,-3.8005,-3.8028,-3.7712,-3.7709,-3.7706,-3.7704,0,0,-3.7755,-3.7757,-3.7782,-3.7793,-3.7803,-3.7848,-3.7922,-3.7961,-3.7991,-3.8013,-3.8073,-3.8143,-3.809,-3.811,-3.8077,-3.8133,-3.8279,-3.8069,-3.8068,-3.8107,-3.843,-3.8471,-3.85,-3.8244,-3.8249,-3.8252,-3.8428,0,-3.7934,-3.806,-3.8021,-3.8148,-3.8202,-3.8129,-3.8192,-3.8205,-3.8193,-3.8236,-3.8222,-3.8272,-3.8199,-3.821,-3.8263,-3.825,-3.8343,-3.8237,-3.8298,-3.8301,-3.8296,-3.8529,-3.8574,-3.874,-3.845,-3.8454,-3.8456,0,-3.816,-3.8189,-3.8322,-3.8321,-3.8342,-3.84,-3.8432,-3.8474,-3.8487,-3.8473,-3.8495,-3.8451,-3.8522,-3.8432,-3.8529,-3.8458,-3.8481,-3.8478,-3.8484,-3.8487,-3.8388,-3.8538,-3.8792,-3.8816,-3.8491,-3.8488,-3.8486,0,-3.8336,-3.8409,-3.8497,-3.8509,-3.8511,-3.8553,-3.8556,-3.8563,-3.8588,-3.8616,-3.8632,-3.8668,-3.8688,-3.8716,-3.8682,-3.862,-3.8783,-3.8691,-3.8774,-3.8775,-3.881,-3.8809,-3.9071,-3.8828,-3.8827,-3.8827,-3.8826,0,-3.8539,-3.8623,-3.8576,-3.863,-3.872,-3.8675,-3.8766,-3.876,-3.8767,-3.8818,-3.8757,-3.8806,-3.8759,-3.8803,-3.8777,-3.886,-3.887,-3.8861,-3.8852,-3.8865,-3.8867,-3.8879,-3.8866,-3.8833,-3.8832,-3.8831,-3.883,0,-3.8751,-3.8723,-3.8814,-3.8808,-3.8808,-3.8875,-3.8869,-3.8918,-3.8901,-3.8967,-3.8979,-3.8953,-3.9002,-3.8971,-3.9021,-3.9003,-3.9111,-3.9088,-3.9107,-3.91,-3.9184,-3.9176,-3.9462,-3.9496,-3.9233,-3.9235,-3.9238,0,-3.8882,-3.8944,-3.8944,-3.8974,-3.898,-3.9029,-3.9054,-3.9012,-3.904,-3.9058,-3.9105,-3.9149,-3.9181,-3.9263,-3.9248,-3.9285,-3.9262,-3.9359,-3.9267,-3.9277,-3.9261,-3.9257,-3.9263,-3.9378,-3.9381,-3.9383,-3.9385,0,-3.9117,-3.91,-3.9138,-3.9173,-3.9204,-3.9229,-3.9249,-3.9277,-3.9234,-3.9269,-3.9318,-3.9343,-3.9394,-3.9437,-3.9468,-3.947,-3.9421,-3.9415,-3.9435,-3.9449,-3.9457,-3.9452,-3.9157,-3.9408,-3.9406,-3.9404,-3.9403,-3.9402,-3.9291,-3.9342,-3.935,-3.9395,-3.9405,-3.9424,-3.947,-3.9458,-3.9498,-3.9536,-3.9508,-3.9566,-3.9575,-3.9611,-3.962,-3.9664,-3.9624,-3.9655,-3.9662,-3.967,-3.9681,-3.9451,-3.9669,-3.9669,-3.9668,-3.9668,-3.9667,0,-3.9521,-3.9522,-3.9564,-3.9593,-3.9628,-3.9578,-3.9597,-3.963,-3.9681,-3.9694,-3.9727,-3.9783,-3.9825,-3.9813,-3.985,-3.9887,-3.9866,-3.9899,-3.9895,-3.9895,-3.9715,-3.9692,-3.9915,-3.9915,-3.9915,-3.9915,-3.9915,-3.9915,-3.9645,-3.9728,-3.9712,-3.9799,-3.9799,-3.9855,-3.987,-3.9887,-3.9897,-3.9962,-3.9996,-3.9988,-3.999,-4.0027,-4.0062,-4.0058,-4.0074,-4.0115,-4.0102,-3.9933,-3.9908,-3.9885,-3.9864,-4.0119,-4.0119,-4.0278,-4.028,-4.0281]},{"header":{"parameterUnit":"m.s-1","parameterCategory":1,"la1":30.2991,"la2":30.254,"lo1":-89.0895,"lo2":-89.0444,"dy":0.0017,"dx":0.0017,"nx":28,"ny":28,"refTime":"2025-11-28T09:00:00:Z","depth":0,"parameterNumber":3,"parameterNumberName":"V-component_of_WINDS"},"data":[0,0,0,0,0,0,0,0,0,0,0,0,0,0,0,0,0,0,0,0,0,0,0,0,0,0,0,0,0,0,0,0,0,0,0,0,0,0,0,0,0,0,0,0,0,0,0,0,0,0,0,0,0,0,0,0,0,0,-4.5136,-4.5137,0,-4.5219,-4.522,-4.522,-4.5162,-4.5159,-4.5157,-4.5154,-4.5235,-4.524,-4.5244,0,0,0,0,0,0,0,0,0,0,0,0,0,-4.4922,-4.4927,-4.5136,-4.5137,-4.5138,-4.5218,-4.522,-4.5221,-4.5162,-4.5159,-4.5156,-4.5153,-4.5234,-4.5239,-4.5245,0,0,0,0,0,0,0,0,0,0,0,0,0,-4.5011,-4.4928,-4.5136,-4.5119,-4.5118,-4.5218,-4.522,-4.5221,-4.5163,-4.5159,-4.5155,-4.5151,-4.5232,-4.5239,-4.5245,-4.5366,0,0,-4.5267,-4.5269,0,0,0,0,0,0,0,0,-4.5006,-4.5019,-4.512,-4.512,-4.5119,-4.5176,-4.5174,-4.527,-4.5164,-4.5146,-4.5154,-4.515,-4.5218,-4.5226,-4.525,-4.537,-4.5373,-4.5267,-4.5271,-4.5274,-4.5276,0,0,0,0,0,0,0,-4.5,-4.5015,-4.5168,-4.5122,-4.5121,-4.5105,-4.5113,-4.5192,-4.5203,-4.5147,-4.5143,-4.5154,-4.5217,-4.5244,-4.5252,-4.5375,-4.5267,-4.5273,-4.5277,-4.528,-4.5595,-4.5599,0,0,0,0,0,0,-4.4996,-4.501,-4.5166,-4.5171,-4.5052,-4.5112,-4.5121,-4.5162,-4.5202,-4.5204,-4.5157,-4.5151,-4.5234,-4.5244,-4.5254,-4.5396,-4.5274,-4.5281,-4.5285,-4.559,-4.5596,-4.56,0,0,0,0,0,0,-4.4992,-4.5011,-4.5163,-4.509,-4.5108,-4.512,-4.5166,-4.5165,-4.5192,-4.521,-4.5211,-4.5182,-4.5231,-4.5245,-4.5338,-4.5398,-4.5284,-4.529,-4.5585,-4.5592,-4.5598,-4.5683,0,0,0,0,0,0,-4.4986,-4.5009,-4.5057,-4.5091,-4.5112,-4.5247,-4.5169,-4.517,-4.5204,-4.5197,-4.5233,-4.5236,-4.5229,-4.5328,-4.5345,-4.5406,-4.5295,-4.558,-4.5588,-4.5596,-4.5675,-4.5691,-4.5705,0,0,0,0,0,-4.4978,-4.5077,-4.5059,-4.5078,-4.5172,-4.5251,-4.5262,-4.5254,-4.5209,-4.5256,-4.5267,-4.5234,-4.5389,-4.5339,-4.5357,-4.5421,-4.5576,-4.5586,-4.5595,-4.5668,-4.5688,-4.5705,0,0,0,0,0,0,-4.5048,-4.5081,-4.5062,-4.5175,-4.5211,-4.5241,-4.5299,-4.5276,-4.5324,-4.5315,-4.5301,-4.531,-4.5408,-4.5424,-4.5366,-4.5538,-4.5475,-4.5489,-4.5524,-4.5544,-4.5559,-4.5552,-4.5301,0,0,0,0,0,-4.5077,-4.514,-4.5165,-4.5262,-4.5281,-4.5287,-4.5321,-4.5312,-4.5347,-4.5362,-4.538,-4.5415,-4.5471,-4.5508,-4.5561,-4.5677,-4.5683,-4.5729,-4.5745,-4.5757,-4.5769,-4.5829,-4.5849,-4.5631,-4.5631,-4.5631,0,0,-4.5137,-4.5163,-4.5203,-4.5277,-4.5303,-4.5367,-4.53,-4.5371,-4.5417,-4.5372,-4.5462,-4.5476,-4.5514,-4.5619,-4.5666,-4.5635,-4.583,-4.5769,-4.5779,-4.5784,-4.5841,-4.5861,-4.5879,-4.5638,-4.5637,-4.5636,0,0,-4.5278,-4.5305,-4.5388,-4.5415,-4.5456,-4.546,-4.5479,-4.5513,-4.5521,-4.5611,-4.5578,-4.5632,-4.573,-4.5757,-4.5784,-4.5934,-4.5905,-4.5951,-4.6031,-4.609,-4.6107,-4.6122,-4.6174,-4.6192,-4.5963,-4.5963,-4.5964,0,-4.5347,-4.5443,-4.5433,-4.5506,-4.5538,-4.5501,-4.5583,-4.561,-4.5666,-4.5688,-4.5653,-4.5774,-4.5797,-4.5906,-4.5943,-4.5967,-4.5987,-4.5947,-4.6106,-4.6121,-4.6135,-4.6183,-4.6203,-4.5969,-4.5968,-4.5967,-4.5967,0,-4.5524,-4.5591,-4.5652,-4.5708,-4.5747,-4.5825,-4.5825,-4.5865,-4.5852,-4.5858,-4.5949,-4.5975,-4.6031,-4.6057,-4.6045,-4.6164,-4.6144,-4.6108,-4.6044,-4.6161,-4.6206,-4.6225,-4.5976,-4.5974,-4.5973,-4.5971,0,0,-4.5711,-4.576,-4.5782,-4.5806,-4.5848,-4.5898,-4.5973,-4.6029,-4.6063,-4.6103,-4.6163,-4.6246,-4.6213,-4.6243,-4.6233,-4.6285,-4.6399,-4.6242,-4.6243,-4.6269,-4.653,-4.6556,-4.6578,-4.6381,-4.6384,-4.6387,-4.6526,0,-4.5853,-4.5984,-4.5977,-4.6099,-4.616,-4.6125,-4.6189,-4.6221,-4.6228,-4.6279,-4.6287,-4.6345,-4.6298,-4.6315,-4.6365,-4.6375,-4.6451,-4.6365,-4.6435,-4.6438,-4.6426,-4.6602,-4.663,-4.676,-4.6544,-4.6547,-4.655,0,-4.6036,-4.6082,-4.6211,-4.6242,-4.6266,-4.6325,-4.6374,-4.6425,-4.6459,-4.646,-4.6494,-4.6475,-4.6548,-4.6484,-4.6584,-4.6525,-4.6553,-4.6562,-4.6567,-4.6572,-4.65,-4.661,-4.6802,-4.6821,-4.6578,-4.6576,-4.6574,0,-4.6157,-4.6251,-4.634,-4.6361,-4.64,-4.6442,-4.646,-4.649,-4.6524,-4.6567,-4.6588,-4.6639,-4.6666,-4.6705,-4.67,-4.6654,-4.68,-4.6736,-4.6802,-4.6802,-4.6834,-4.6832,-4.7031,-4.6855,-4.6854,-4.6854,-4.6854,0,-4.6315,-4.6395,-4.6395,-4.6449,-4.6536,-4.6526,-4.6612,-4.6625,-4.6653,-4.6707,-4.668,-4.6732,-4.6722,-4.6774,-4.677,-4.6851,-4.6865,-4.6866,-4.6864,-4.6868,-4.6868,-4.6885,-4.6876,-4.6859,-4.6858,-4.6857,-4.6856,0,-4.6465,-4.6469,-4.6563,-4.6592,-4.6601,-4.6663,-4.6687,-4.6738,-4.6743,-4.6812,-4.6828,-4.6836,-4.6894,-4.6893,-4.696,-4.6957,-4.7057,-4.7045,-4.7046,-4.7042,-4.7108,-4.7101,-4.7324,-4.7352,-4.716,-4.7161,-4.7163,0,-4.6565,-4.6626,-4.6661,-4.6696,-4.6717,-4.6774,-4.6808,-4.68,-4.6836,-4.6879,-4.6923,-4.698,-4.7024,-4.7119,-4.7129,-4.718,-4.7168,-4.7242,-4.7175,-4.7176,-4.7167,-4.7163,-4.7167,-4.7255,-4.7257,-4.7259,-4.7261,0,-4.6742,-4.674,-4.6791,-4.6842,-4.6883,-4.6923,-4.6959,-4.6989,-4.6985,-4.7026,-4.7086,-4.7121,-4.7189,-4.7244,-4.7292,-4.7308,-4.7283,-4.7282,-4.7299,-4.7303,-4.73,-4.7301,-4.708,-4.7276,-4.7275,-4.7274,-4.7273,-4.7272,-4.6868,-4.6919,-4.6952,-4.7009,-4.7035,-4.7069,-4.7118,-4.7129,-4.7179,-4.7234,-4.7226,-4.7292,-4.7323,-4.7385,-4.7406,-4.7456,-4.743,-4.7456,-4.7462,-4.7468,-4.7475,-4.7294,-4.7465,-4.7465,-4.7464,-4.7464,-4.7464,0,-4.7041,-4.706,-4.7113,-4.7164,-4.7209,-4.7182,-4.7221,-4.7259,-4.7318,-4.7349,-4.7393,-4.7461,-4.7514,-4.7529,-4.758,-4.7618,-4.7607,-4.7631,-4.7627,-4.7631,-4.7497,-4.7475,-4.7638,-4.7638,-4.7638,-4.7638,-4.7638,-4.7638,-4.7136,-4.7221,-4.7223,-4.732,-4.7338,-4.7403,-4.7427,-4.7458,-4.7482,-4.756,-4.7604,-4.7613,-4.7637,-4.7689,-4.7736,-4.7739,-4.7758,-4.7787,-4.7785,-4.7658,-4.7641,-4.7624,-4.7604,-4.7791,-4.7792,-4.7915,-4.7916,-4.7917]}]]